RH
79 73 78 79 83 83 81 81 82 89 90 92 94 92 98 84 63 71 88 92 89 91 93 93 89 90 97 96 90 92 84 81 78 83 84 88 92 99 93 81 68 84 89
80 70 77 76 89 85 78 78 79 82 86 91 89 85 94 95 80 69 88 96 96 94 93 95 96 97 97 98 98 84 72 72 70 74 76 80 91 97 82 60 80 90 91
81 82 80 75 77 83 78 78 78 81 82 86 86 86 86 95 93 79 84 90 93 94 96 97 97 94 96 97 97 98 75 73 80 83 85 74 85 92 87 88 91 91 92
81 83 87 76 79 78 79 78 78 80 84 86 85 86 84 93 94 95 91 88 86 88 93 95 90 82 88 91 91 81 71 76 77 75 78 72 82 87 87 87 90 91 93
76 81 79 76 73 75 78 80 80 80 83 85 84 84 82 88 96 97 92 86 82 82 87 83 80 78 79 80 74 72 69 68 66 63 64 66 65 82 94 91 90 90 94
79 81 76 80 73 77 71 76 80 81 82 84 81 82 80 82 88 93 90 88 86 80 84 77 74 66 64 73 67 65 70 64 65 63 57 67 64 89 90 72 77 93 95
83 83 80 81 78 77 80 75 76 80 80 81 82 83 82 86 86 85 85 89 88 79 79 76 72 62 60 62 58 46 55 61 58 56 59 66 58 94 95 92 88 93 94
83 86 85 84 80 82 84 82 83 83 84 85 82 83 85 85 86 82 81 87 87 78 77 72 71 62 66 68 74 51 36 50 52 54 61 70 60 94 93 75 79 81 81
84 84 89 93 80 79 85 85 83 83 83 84 83 84 81 81 83 78 84 86 84 78 76 73 71 67 67 74 64 53 38 45 54 59 62 65 52 88 77 67 71 72 70
65 85 86 86 90 83 72 80 84 82 80 77 76 79 81 84 83 80 79 85 84 80 78 75 73 67 68 71 63 58 43 46 56 59 63 66 68 75 74 67 68 69 68
36 46 72 84 84 82 80 78 70 70 78 80 80 77 81 81 78 83 80 86 87 84 75 76 77 65 65 65 64 60 54 42 53 54 57 59 58 70 85 71 68 69 69
29 33 37 62 82 84 77 77 74 70 63 68 76 74 76 76 81 80 78 89 88 84 75 72 74 71 63 63 62 56 54 60 62 54 55 57 60 53 93 84 73 73 74
25 27 30 34 54 79 84 80 80 75 70 70 69 75 78 72 72 78 86 85 92 90 83 72 75 73 64 59 74 63 56 57 61 55 56 59 60 56 60 96 89 77 74
24 26 29 33 35 51 82 82 79 74 76 78 73 67 69 73 66 63 75 85 92 92 89 81 73 64 58 59 61 63 59 59 58 56 54 55 55 54 57 63 92 94 87
25 25 27 28 32 34 67 80 83 78 79 76 74 72 65 64 64 69 75 83 87 94 84 76 67 67 59 59 59 58 56 55 56 56 54 53 53 53 55 58 63 80 94
27 27 28 29 29 37 42 72 80 75 68 75 73 71 71 66 65 72 72 77 82 86 85 73 63 56 53 52 56 60 58 55 51 50 51 51 52 54 55 55 59 63 70
26 27 28 30 30 33 37 50 76 78 73 66 71 76 72 70 63 70 76 82 83 83 83 79 70 65 53 54 58 62 58 54 51 49 48 48 51 54 57 58 55 60 62
28 28 28 30 32 33 33 41 58 76 75 69 67 73 76 75 71 75 72 78 84 83 83 84 84 75 65 60 59 60 60 56 53 49 46 46 49 53 57 59 60 58 59
33 34 32 30 31 34 35 34 44 68 75 78 68 72 74 73 71 74 75 78 76 80 82 83 85 85 78 70 65 62 60 59 55 50 48 49 50 52 55 60 64 66 65
42 42 41 35 31 35 37 36 37 53 73 76 77 68 74 73 76 78 77 79 78 80 83 85 87 82 84 77 78 77 72 67 63 59 55 51 51 51 52 53 56 61 68
48 46 46 43 36 34 36 37 37 57 80 71 75 71 71 74 74 73 80 81 76 76 77 82 82 82 82 75 83 83 81 75 71 66 62 57 54 54 56 55 59 68 72
58 62 46 46 44 39 37 37 36 46 72 71 72 74 71 73 73 72 73 73 73 74 80 80 81 82 88 90 83 88 92 80 74 69 68 67 63 58 55 60 63 70 74
61 60 67 47 46 44 40 38 37 39 58 81 80 70 76 76 76 76 77 78 78 77 82 84 76 78 92 89 86 86 94 88 68 61 66 66 68 65 61 63 68 68 70
66 63 66 67 45 43 42 39 39 38 56 63 82 84 78 83 79 78 78 79 81 82 82 80 84 87 88 97 93 92 84 82 86 81 71 71 68 69 69 67 68 68 60
72 72 68 69 56 48 44 41 40 42 46 62 71 76 76 76 85 83 82 82 83 86 88 85 84 94 95 95 96 93 100 95 93 94 91 78 72 66 68 68 68 66 59
89 88 78 74 64 55 54 53 43 45 48 56 69 78 76 77 81 80 81 85 86 84 87 93 93 90 92 96 99 99 96 95 97 97 96 97 92 79 74 58 61 67 68
Wind_Speed
6 5 10 12 13 12 11 11 11 10 9 9 8 7 8 7 8 9 10 10 7 7 9 8 12 13 14 12 12 12 11 14 14 13 15 14 16 17 17 13 12 15 14
2 7 11 12 13 12 10 10 11 11 10 10 9 7 5 6 7 8 8 8 8 10 8 11 11 12 12 12 11 10 11 13 15 15 14 13 14 13 12 11 13 14 13
5 10 13 13 13 12 11 10 11 11 11 9 8 7 5 6 6 8 8 7 8 10 10 11 10 9 9 10 10 9 12 14 14 14 12 12 10 11 12 13 13 12 13
2 9 12 13 13 13 11 11 11 10 9 8 7 7 4 5 6 7 8 8 7 7 9 9 10 8 10 9 9 9 11 11 8 6 3 8 9 11 11 11 11 11 12
4 9 13 10 11 11 11 10 11 10 9 7 6 6 3 5 7 8 8 10 9 8 9 9 6 6 9 9 8 9 11 10 10 11 9 9 5 10 10 9 10 9 10
5 2 9 11 12 11 10 10 10 10 9 7 6 6 6 5 7 7 10 10 9 9 10 9 6 7 7 7 7 7 9 9 8 9 6 5 4 9 8 7 8 9 9
6 2 6 9 11 12 12 12 11 10 9 9 7 7 7 6 6 8 10 11 12 9 10 8 8 7 6 6 5 5 6 7 7 7 6 2 5 7 7 7 7 7 7
4 5 2 6 10 11 12 12 12 11 10 9 9 8 8 7 7 7 11 10 14 10 9 8 8 6 6 7 4 3 5 8 6 5 3 2 3 6 5 5 5 6 6
5 2 3 3 8 9 10 12 13 13 12 11 10 10 9 9 8 9 10 11 14 12 11 9 8 7 7 7 6 4 5 7 6 6 4 3 4 5 4 3 4 4 4
8 7 3 1 6 6 11 12 12 13 14 14 13 12 11 10 9 10 11 14 15 12 11 11 10 9 7 7 6 4 5 7 4 2 3 2 1 3 3 2 2 2 1
7 6 5 7 6 9 9 13 13 15 15 14 14 13 13 12 11 11 11 16 16 13 12 13 12 11 9 8 7 6 5 7 4 4 7 6 4 4 4 3 2 2 2
10 8 8 4 6 10 10 9 14 13 17 17 16 15 15 13 14 14 13 16 17 15 13 14 14 14 12 8 6 8 7 6 3 5 8 7 6 7 6 6 5 5 5
13 13 12 10 9 9 14 13 15 15 15 13 15 15 15 12 17 19 17 17 18 17 16 16 17 17 15 12 14 8 5 6 5 8 9 9 9 8 8 8 8 8 8
16 17 16 14 13 10 13 16 16 16 15 17 18 19 19 20 18 21 20 20 21 20 19 16 19 18 17 13 14 13 9 10 11 9 10 10 10 10 10 9 10 11 11
18 18 18 18 17 16 13 17 17 19 21 18 18 18 20 19 18 20 19 19 18 20 18 20 16 18 16 17 17 17 15 13 12 12 11 12 11 9 11 13 12 12 11
18 18 17 18 18 18 17 17 20 17 19 20 16 18 19 19 17 16 17 21 23 23 21 20 20 20 22 20 21 18 18 17 16 15 13 13 12 12 11 14 15 14 13
21 21 20 18 19 20 20 19 20 23 17 20 21 19 22 18 23 21 19 20 21 24 25 20 22 19 21 18 21 19 21 20 19 18 17 17 17 15 14 13 16 17 16
18 22 22 21 20 19 21 22 20 23 25 20 23 22 21 19 21 21 23 24 21 22 24 25 23 22 19 19 20 20 20 20 21 21 20 19 19 18 16 15 14 17 19
17 20 24 24 25 23 22 23 24 21 26 24 18 22 23 23 22 22 22 23 23 22 23 25 24 20 21 22 19 18 21 21 23 22 21 19 19 20 19 17 17 16 17
20 22 24 24 25 24 23 23 25 24 26 30 24 21 23 25 22 22 22 20 17 18 17 18 19 20 20 21 20 22 23 22 19 24 22 21 22 21 21 23 23 22 19
22 23 23 25 25 22 22 23 24 25 25 28 32 24 23 25 22 19 22 17 16 19 18 18 21 17 21 22 16 17 21 24 25 27 23 27 25 25 22 24 23 20 16
27 28 23 24 27 26 25 24 25 22 25 26 31 34 26 23 24 25 20 19 19 19 18 22 18 20 22 21 15 10 2 9 24 27 27 26 28 30 26 23 22 19 17
23 27 27 25 26 27 24 23 24 20 18 21 28 32 35 28 19 20 21 21 20 20 19 20 22 26 21 23 24 13 1 4 3 17 30 32 30 27 26 20 23 22 19
28 26 29 28 23 24 25 23 22 25 21 21 19 25 33 29 30 27 24 21 21 21 23 22 21 25 24 19 20 27 28 7 3 2 4 18 19 17 17 20 21 20 14
29 27 29 27 21 21 19 26 26 24 26 21 20 20 21 24 24 25 22 22 24 22 23 24 24 23 23 24 24 15 21 24 23 7 2 4 9 10 11 11 15 18 18
27 28 26 23 21 19 21 23 28 26 25 23 20 19 20 20 21 20 19 23 23 23 24 24 24 25 26 26 27 23 19 7 8 8 6 4 4 15 20 21 23 27 23
Wind_Direction
135 149 175 168 169 163 160 166 167 166 157 148 135 127 121 108 103 114 115 110 111 128 120 101 96 97 95 91 86 97 102 95 93 94 95 91 82 76 80 85 63 70 68
178 166 176 174 170 170 167 168 172 169 164 160 149 136 134 129 122 124 126 115 87 127 143 114 99 97 95 90 87 95 101 99 96 92 94 89 78 75 72 66 69 71 70
162 169 172 178 180 177 171 168 168 167 166 165 158 148 144 149 144 136 140 133 113 102 114 116 108 104 101 98 92 96 102 107 102 98 90 69 71 68 70 71 72 71 70
150 179 174 181 185 184 176 170 166 166 170 168 165 158 150 169 161 154 147 141 141 130 121 121 112 112 115 113 109 109 116 111 92 85 87 94 77 77 76 75 71 68 69
41 178 180 182 188 188 187 183 178 177 177 176 175 163 181 195 178 173 161 155 144 158 149 147 154 133 125 124 118 122 127 106 73 65 80 79 66 87 81 78 71 71 72
57 165 190 195 188 188 190 191 192 188 182 188 188 179 210 225 188 187 180 177 172 171 160 167 165 137 130 126 128 132 137 124 77 67 84 90 78 92 88 82 72 73 72
61 106 188 197 199 198 194 197 201 202 202 207 213 208 208 216 209 204 200 191 184 181 180 185 171 159 152 144 135 144 152 141 86 90 100 111 98 96 88 79 75 75 74
56 60 175 207 203 201 204 205 207 208 203 211 212 219 223 223 214 216 210 215 189 187 193 192 182 169 155 167 175 149 153 147 117 127 139 150 116 112 102 86 80 75 72
9 2 96 233 214 208 213 215 214 215 215 218 219 224 227 218 218 213 211 201 195 195 202 197 192 178 165 168 181 171 162 162 138 145 188 238 142 135 128 105 92 82 76
30 6 310 123 205 240 229 224 223 222 223 224 230 234 233 227 224 217 217 208 204 203 211 205 202 196 191 193 192 182 170 165 116 140 214 227 244 177 171 154 128 104 78
358 356 343 319 247 233 221 243 233 229 227 225 225 228 234 230 227 222 214 202 203 213 214 214 214 210 208 210 215 208 192 170 158 199 224 233 269 219 218 223 228 237 263
308 308 314 288 304 263 245 268 227 238 234 230 227 230 229 231 222 220 209 203 207 214 216 215 217 216 217 219 236 233 219 185 246 212 240 245 273 239 223 248 255 260 267
292 283 283 289 265 276 250 233 236 231 235 229 229 228 231 222 222 204 200 207 211 216 218 214 218 218 222 213 234 237 230 204 259 222 243 255 272 257 241 240 256 262 268
283 277 269 262 267 257 267 248 235 237 222 226 221 226 221 224 226 211 206 207 215 217 219 226 223 224 221 216 217 227 233 220 230 230 241 252 265 265 251 248 245 255 263
278 277 277 270 257 255 243 254 240 241 242 236 223 227 227 229 216 207 213 211 216 214 216 216 223 224 221 217 223 227 226 231 233 232 241 253 255 272 258 253 253 252 260
278 278 277 269 266 249 244 244 243 250 242 229 223 224 223 236 216 202 217 218 214 214 217 212 211 220 224 221 221 225 231 235 232 235 232 241 252 258 267 259 255 255 254
263 270 278 275 261 251 243 243 244 246 253 231 233 232 225 237 228 231 219 224 221 219 217 217 219 223 226 225 226 231 230 231 232 234 236 239 243 248 254 267 254 255 259
272 261 269 267 257 255 247 242 245 244 249 239 231 227 225 227 228 226 227 228 225 222 222 224 226 227 226 231 233 234 232 239 240 240 238 237 236 242 243 249 253 250 255
296 288 276 267 253 249 248 244 242 244 241 243 239 230 223 227 226 225 227 231 231 236 228 224 227 227 228 240 239 241 235 236 249 244 244 246 246 244 244 247 251 256 258
286 280 281 270 262 247 245 247 243 244 243 242 235 233 225 223 218 217 220 221 217 222 228 225 226 228 231 238 240 248 250 249 246 245 250 247 248 247 246 250 255 252 257
307 286 274 268 257 253 244 242 242 238 239 241 238 228 224 227 215 210 216 220 216 226 227 229 231 235 237 241 247 248 252 249 251 248 247 246 246 249 246 249 249 249 261
318 315 276 267 260 251 245 238 239 240 237 243 239 236 234 225 221 219 216 222 228 234 233 232 231 241 246 242 235 246 265 253 244 241 244 245 244 252 245 246 243 234 239
304 308 308 267 262 251 243 234 238 244 246 236 234 239 240 236 224 214 222 228 227 228 233 236 236 239 235 243 239 216 222 240 244 242 244 249 247 250 242 234 233 240 246
299 294 301 296 255 255 240 230 231 234 234 238 238 235 233 235 236 233 229 227 231 234 237 244 246 241 241 232 247 249 233 220 236 286 249 221 227 234 234 246 252 251 244
298 292 286 282 264 254 241 231 231 234 234 234 236 239 239 234 232 226 229 237 234 236 240 239 240 239 241 242 230 235 240 245 239 212 211 254 219 239 252 267 268 266 277
308 286 278 272 255 247 245 247 230 233 234 234 228 240 234 231 226 244 238 233 233 236 241 240 243 251 252 252 248 237 228 212 208 212 222 230 232 276 285 276 272 271 276